Simultaneous Nadir Overpasses (SNOs) Predictions

Prediction of SNOs between METOP-B and NOAA-19 Satellite Orbit:

Table of predicted SNOs for the next 14.0 days since TLE Epoch: 11/26/2022
Index Date (METOP-B) Time (METOP-B) Lat,Lon (METOP-B) SZA (METOP-B ) Date (NOAA-19) Time (NOAA-19) Lat,Lon (NOAA-19) SZA (NOAA-19 ) Distance(km) Time Diff (sec)
1 12/01/2022 00:44:24 80.92,-156.18 104.45 12/01/2022 00:43:13 80.91,-156.13 104.42 0.92 71
2 12/01/2022 01:35:05 -80.92, 11.16 75.55 12/01/2022 01:34:14 -80.91, 11.01 75.59 2.73 51
3 12/01/2022 02:25:46 80.91, 178.35 104.44 12/01/2022 02:25:13 80.91, 178.22 104.42 2.33 33
4 12/01/2022 03:16:27 -80.91, -14.31 75.56 12/01/2022 03:16:13 -80.91, -14.26 75.56 0.86 14
5 12/01/2022 04:07:08 80.90, 152.88 104.43 12/01/2022 04:07:12 80.91, 152.94 104.45 1.56 4
6 12/01/2022 04:57:48 -80.92, -39.42 75.52 12/01/2022 04:58:12 -80.91, -39.53 75.53 2.28 24
7 12/01/2022 05:48:29 80.91, 127.77 104.47 12/01/2022 05:49:11 80.91, 127.67 104.48 1.73 42



Historial Predications of SNOs between METOP-B and NOAA-19
